Regional Weather Roundup
Issued by NWS

Home | Current Version | Previous Version | Graphics & Text | Print | Product List | Glossary On
Versions: 1 2 3 4 5 6 7 8 9 10 11 12 13 14 15 16 17 18 19 20 21 22 23 24 25 26 27 28 29 30 31 32 33 34 35 36 37 38 39 40 41 42 43 44 45 46 47 48 49 50
000
ASUS43 KMKX 311700
RWRWI

WISCONSIN REGIONAL WEATHER ROUNDUP
NATIONAL WEATHER SERVICE MILWAUKEE/SULLIVAN WI
1200 PM CDT THU JUL 31 2014

NOTE: "FAIR" INDICATES FEW OR NO CLOUDS BELOW 12,000 FEET WITH NO
SIGNIFICANT WEATHER AND/OR OBSTRUCTIONS TO VISIBILITY.

WIZ001-002-006>008-014>016-023>028-311800-
NORTHWEST WISCONSIN

CITY           SKY/WX    TMP DP  RH WIND       PRES   REMARKS
SUPERIOR ARPT  SUNNY     76  60  57 CALM      29.98S
ASHLAND        SUNNY     77  54  44 NW5       29.98S
HAYWARD        SUNNY     73  58  59 SE3       30.00F
SIREN          SUNNY     76  61  59 NW9       30.01S
RICE LAKE      CLOUDY    74  60  60 W9        30.03S
LADYSMITH      SUNNY     73  64  72 W6        30.03S
EAU CLAIRE     NOT AVBL
MENOMONIE      SUNNY     79  55  43 W12       30.03S
NEW RICHMOND   SUNNY     77  56  49 W8        30.04S
OSCEOLA        SUNNY     76  59  54 SW10      30.05S
$$

WIZ003>005-009-010-017-018-311800-
NORTH CENTRAL WISCONSIN

CITY           SKY/WX    TMP DP  RH WIND       PRES   REMARKS
WOODRUFF       MOSUNNY   77  52  42 NW5       30.00S
RHINELANDER    SUNNY     73  48  41 N9        30.01S
EAGLE RIVER    MOSUNNY   72  49  44 NW10      30.00R
LAND O LAKES   SUNNY     72  53  50 W8        30.00S
PHILLIPS       MOSUNNY   72  58  59 W6        30.00S
TOMAHAWK       SUNNY     72  55  54 NW3       30.01S
MEDFORD        MOSUNNY   70  61  73 W6        30.02S
MERRILL        MOSUNNY   73  61  65 CALM      30.00S
$$

WIZ029-030-035-036-043>047-311800-
CENTRAL WISCONSIN

CITY           SKY/WX    TMP DP  RH WIND       PRES   REMARKS
WAUSAU         PTSUNNY   75  59  57 W10       29.99S
MOSINEE        PTSUNNY   75  63  64 W10       30.01S
MARSHFIELD     PTSUNNY   75  62  64 W12       30.01S
STEVENS POINT  PTSUNNY   72  61  67 W6        30.01S
WAUPACA        MOSUNNY   80  59  49 NW8       29.99S HX  81
WAUTOMA        NOT AVBL
WISC RAPIDS    MOSUNNY   77  62  59 W12       30.02S
CAMP DOUGLAS   NOT AVBL
$$

WIZ011>013-019>022-031-037>040-048>050-311800-
NORTHEAST WISCONSIN

CITY           SKY/WX    TMP DP  RH WIND       PRES   REMARKS
ANTIGO         MOSUNNY   73  56  56 W7        30.01S
STURGEON BAY   SUNNY     73  55  53 W8        29.98S
GREEN BAY      SUNNY     76  63  64 W7        29.98S
MANITOWOC      NOT AVBL
APPLETON       MOSUNNY   73  61  64 SW7       30.00S
CLINTONVILLE   MOSUNNY   77  57  50 NW7       29.98S
OSHKOSH        SUNNY     76  62  62 W7        29.99S
$$

WIZ032>034-041-042-053>061-311800-
SOUTHWEST WISCONSIN

CITY           SKY/WX    TMP DP  RH WIND       PRES   REMARKS
LA CROSSE      SUNNY     79  60  52 VRB5      30.03S HX  80
SPARTA         SUNNY     76  60  57 W6        30.04S
VIROQUA        FAIR      75  61  62 W6        30.06S
BOSCOBEL       SUNNY     81  57  43 W7        30.05S HX  81
PRAIRIE DU CHI SUNNY     78  56  46 W8        30.05S
PLATTEVILLE    FAIR      76  61  58 W12       30.08S
$$

WIZ056-057-062-063-064-067-068-311800-
SOUTH CENTRAL WISCONSIN

CITY           SKY/WX    TMP DP  RH WIND       PRES   REMARKS
BARABOO/DELLS  MOSUNNY   78  55  45 W13       30.03S
LONE ROCK      NOT AVBL
WATERTOWN      SUNNY     76  62  62 W9        30.02S
MADISON        MOSUNNY   79  59  50 NW12      30.03S HX  80
MIDDLETON      FAIR      79  57  46 W14       30.04S HX  80
MONROE         SUNNY     77  59  53 W12       30.05F
JANESVILLE     MOSUNNY   82  55  39 W12G17    30.02F HX  82
$$

WIZ051-052-058>065-066-070>072-311800-
SOUTHEAST WISCONSIN

CITY           SKY/WX    TMP DP  RH WIND       PRES   REMARKS
MILWAUKEE      MOSUNNY   79  59  50 W10G17    30.01S HX  80
WAUKESHA       SUNNY     73  61  64 SW12      30.03S
MILWAUKEE/TIMM SUNNY     73  57  56 MISG      30.02S
RACINE         SUNNY     78  60  53 W13       30.03S
BURLINGTON     SUNNY     76  59  55 W8        30.03S
KENOSHA        SUNNY     79  60  52 W15       30.02F HX  80
FOND DU LAC    SUNNY     77  61  57 W9        30.00S
SHEBOYGAN      MOSUNNY   76  61  59 VRB6      30.00S
WEST BEND      SUNNY     73  59  60 W10G17    30.01S
JUNEAU         SUNNY     74  57  55 SW12      30.03S
$$

LSZ147-162-311800-
LAKE SUPERIOR

STATION/POSITION TIME  TEMP    WIND        PRES    WAVE
                       AIR SEA DIR/SP/G            HT/PER
                 (UTC) (F)     (DEG/KT/KT) (MB)    (FT/S)
W MID LAKE BUOY  1550   50 42  240/  6/  6 1014.6S   0
PORT WING        1600   67     280/  5/  7 1015.2S
SAXON HARBOR     1640           50/  4/  4 1015.2S
$$

LMZ867-665-643>646-311800-
LAKE MICHIGAN

STATION/POSITION TIME  TEMP    WIND        PRES    WAVE
                       AIR SEA DIR/SP/G            HT/PER
                 (UTC) (F)     (DEG/KT/KT) (MB)    (FT/S)
N MID LAKE BUOY  1550   57 55  210/ 10/ 10 1014.1F   0
NORTHPORT PIER   1600   66     140/  6/  7 1014.6S
SISTER BAY       1610   72     290/ 10/ 10   N/A
ALGOMA LAKESHORE 1436          220/  6/  7   N/A
KEWAUNEE LAKESHO 1600   57     170/  5/  6 1014.8S
SHEBOYGAN LAKESH 1600   69     110/  4/  5 1015.7R
PORT WASHINGTON  1640   80     250/  6/ 10 1016.3S
ATWATER BUOY     1600   68     120/  4     1017.1R
MILWAUKEE LAKESH 1600   74     270/  7/ 11   N/A
S MID LAKE BUOY  1550   63 61  250/  6/  6 1017.0R   1/ 3
KENOSHA   LAKESH 1600   74     260/  9/ 11 1016.3S
$$

TC  - TEMPERATURE IN CELSIUS
VSB - VISIBILITY IN STATUTE MILES
WCI - WIND CHILL INDEX
HX  - HEAT INDEX




USA.gov is the U.S. government's official web portal to all federal, state and local government web resources and services.